Time,TemperatureF,DewpointF,PressureIn,WindDirection,WindDirectionDegrees,WindSpeedMPH,WindSpeedGustMPH,Humidity,HourlyPrecipIn,Conditions,Clouds,dailyrainin,SolarRadiationWatts/m^2,SoftwareType,DateUTC
2013-03-27 00:00:00,34.6,27.5,30.27,NW,317,6.0,9.0,75,0.00,,---,0.00,0.00,VWS V14.00,2013-03-27 04:00:00,
2013-03-27 00:05:00,34.5,27.4,30.27,NW,319,4.0,7.0,75,0.00,,---,0.00,0.00,VWS V14.00,2013-03-27 04:05:00,
2013-03-27 00:10:00,34.4,27.3,30.27,NW,322,4.0,7.0,75,0.00,,---,0.00,0.00,VWS V14.00,2013-03-27 04:10:00,
2013-03-27 00:15:00,34.3,27.5,30.27,NW,323,4.0,7.0,76,0.00,,---,0.00,0.00,VWS V14.00,2013-03-27 04:15:00,
2013-03-27 00:20:00,34.2,27.4,30.27,WNW,302,4.0,8.0,76,0.00,,---,0.00,0.00,VWS V14.00,2013-03-27 04:20:00,
2013-03-27 00:25:00,34.1,27.3,30.27,NW,314,4.0,7.0,76,0.00,,---,0.00,0.00,VWS V14.00,2013-03-27 04:25:00,
2013-03-27 00:30:00,34.1,27.3,30.27,NW,315,6.0,9.0,76,0.00,,---,0.00,0.00,VWS V14.00,2013-03-27 04:30:00,
2013-03-27 00:35:00,34.0,27.2,30.27,NW,315,6.0,8.0,76,0.00,,---,0.00,0.00,VWS V14.00,2013-03-27 04:35:00,
2013-03-27 00:40:00,34.0,27.2,30.27,WNW,301,4.0,9.0,76,0.00,,---,0.00,0.00,VWS V14.00,2013-03-27 04:40:00,
2013-03-27 00:45:00,33.9,27.5,30.27,WNW,295,5.0,8.0,77,0.00,,---,0.00,0.00,VWS V14.00,2013-03-27 04:45:00,
2013-03-27 00:50:00,33.8,27.4,30.27,NW,319,5.0,7.0,77,0.00,,---,0.00,0.00,VWS V14.00,2013-03-27 04:50:00,
2013-03-27 00:55:00,33.8,27.4,30.27,NW,310,5.0,10.0,77,0.00,,---,0.00,0.00,VWS V14.00,2013-03-27 04:55:00,
2013-03-27 01:00:00,33.8,27.4,30.27,NW,313,5.0,7.0,77,0.00,,---,0.00,0.00,VWS V14.00,2013-03-27 05:00:00,
2013-03-27 01:05:00,33.7,27.3,30.27,NNW,329,7.0,8.0,77,0.00,,---,0.00,0.00,VWS V14.00,2013-03-27 05:05:00,
2013-03-27 01:10:00,33.7,27.3,30.27,WNW,283,7.0,11.0,77,0.00,,---,0.00,0.00,VWS V14.00,2013-03-27 05:10:00,
2013-03-27 01:15:00,33.7,27.3,30.27,WNW,302,7.0,11.0,77,0.00,,---,0.00,0.00,VWS V14.00,2013-03-27 05:15:00,
2013-03-27 01:20:00,33.7,27.3,30.27,WNW,298,5.0,5.0,77,0.00,,---,0.00,0.00,VWS V14.00,2013-03-27 05:20:00,
2013-03-27 01:25:00,33.7,27.6,30.27,NW,318,5.0,9.0,78,0.00,,---,0.00,0.00,VWS V14.00,2013-03-27 05:25:00,
2013-03-27 01:30:00,33.8,27.7,30.27,WNW,295,6.0,10.0,78,0.00,,---,0.00,0.00,VWS V14.00,2013-03-27 05:30:00,
2013-03-27 01:35:00,33.8,27.7,30.27,West,267,6.0,9.0,78,0.00,,---,0.00,0.00,VWS V14.00,2013-03-27 05:35:00,
2013-03-27 01:40:00,33.8,27.7,30.26,WNW,302,8.0,11.0,78,0.00,,---,0.00,0.00,VWS V14.00,2013-03-27 05:40:00,
2013-03-27 01:45:00,33.9,27.8,30.26,WNW,289,6.0,7.0,78,0.00,,---,0.00,0.00,VWS V14.00,2013-03-27 05:45:00,
2013-03-27 01:50:00,33.9,27.8,30.26,WNW,293,7.0,7.0,78,0.00,,---,0.00,0.00,VWS V14.00,2013-03-27 05:50:00,
2013-03-27 01:55:00,34.0,27.9,30.26,NW,321,10.0,12.0,78,0.00,,---,0.00,0.00,VWS V14.00,2013-03-27 05:55:00,
2013-03-27 02:00:00,34.0,27.9,30.26,West,274,8.0,10.0,78,0.00,,---,0.00,0.00,VWS V14.00,2013-03-27 06:00:00,
2013-03-27 02:05:00,34.0,27.9,30.27,WNW,300,5.0,7.0,78,0.00,,---,0.00,0.00,VWS V14.00,2013-03-27 06:05:00,
2013-03-27 02:10:00,34.0,27.9,30.27,WNW,302,7.0,7.0,78,0.00,,---,0.00,0.00,VWS V14.00,2013-03-27 06:10:00,
2013-03-27 02:15:00,34.0,27.9,30.27,NW,313,7.0,9.0,78,0.00,,---,0.00,0.00,VWS V14.00,2013-03-27 06:15:00,
2013-03-27 02:20:00,34.0,27.9,30.27,NW,319,7.0,7.0,78,0.00,,---,0.00,0.00,VWS V14.00,2013-03-27 06:20:00,
2013-03-27 02:25:00,33.9,28.1,30.26,NW,315,15.0,15.0,79,0.00,,---,0.00,0.00,VWS V14.00,2013-03-27 06:25:00,
2013-03-27 02:30:00,33.9,28.1,30.27,NW,314,6.0,6.0,79,0.00,,---,0.00,0.00,VWS V14.00,2013-03-27 06:30:00,
2013-03-27 02:35:00,33.8,28.0,30.27,NW,309,9.0,11.0,79,0.00,,---,0.00,0.00,VWS V14.00,2013-03-27 06:35:00,
2013-03-27 02:40:00,33.8,28.0,30.27,WNW,294,10.0,10.0,79,0.00,,---,0.00,0.00,VWS V14.00,2013-03-27 06:40:00,
2013-03-27 02:45:00,33.8,29.5,30.27,WNW,295,7.0,11.0,84,0.00,,---,0.00,0.00,VWS V14.00,2013-03-27 06:45:00,
2013-03-27 02:50:00,33.8,28.0,30.26,NW,315,9.0,9.0,79,0.00,,---,0.00,0.00,VWS V14.00,2013-03-27 06:50:00,
2013-03-27 02:55:00,33.8,28.0,30.26,WNW,293,7.0,10.0,79,0.00,,---,0.00,0.00,VWS V14.00,2013-03-27 06:55:00,
2013-03-27 03:00:00,33.7,27.9,30.26,WNW,292,9.0,9.0,79,0.00,,---,0.00,0.00,VWS V14.00,2013-03-27 07:00:00,
2013-03-27 03:05:00,33.7,27.9,30.26,West,279,8.0,8.0,79,0.00,,---,0.00,0.00,VWS V14.00,2013-03-27 07:05:00,
2013-03-27 03:10:00,33.6,27.8,30.26,West,265,7.0,9.0,79,0.00,,---,0.00,0.00,VWS V14.00,2013-03-27 07:10:00,
2013-03-27 03:15:00,33.5,28.0,30.26,West,274,7.0,8.0,80,0.00,,---,0.00,0.00,VWS V14.00,2013-03-27 07:15:00,
2013-03-27 03:20:00,33.4,27.9,30.26,NW,323,5.0,8.0,80,0.00,,---,0.00,0.00,VWS V14.00,2013-03-27 07:20:00,
2013-03-27 03:25:00,33.2,27.7,30.26,NW,304,4.0,5.0,80,0.00,,---,0.00,0.00,VWS V14.00,2013-03-27 07:25:00,
2013-03-27 03:30:00,33.1,27.6,30.26,WNW,301,5.0,5.0,80,0.00,,---,0.00,0.00,VWS V14.00,2013-03-27 07:30:00,
2013-03-27 03:35:00,33.0,27.5,30.26,WNW,301,5.0,7.0,80,0.00,,---,0.00,0.00,VWS V14.00,2013-03-27 07:35:00,
2013-03-27 03:40:00,32.9,27.7,30.26,WNW,300,4.0,8.0,81,0.00,,---,0.00,0.00,VWS V14.00,2013-03-27 07:40:00,
2013-03-27 03:45:00,32.8,27.6,30.26,NW,320,8.0,8.0,81,0.00,,---,0.00,0.00,VWS V14.00,2013-03-27 07:45:00,
2013-03-27 03:50:00,32.8,27.6,30.26,NW,316,4.0,6.0,81,0.00,,---,0.00,0.00,VWS V14.00,2013-03-27 07:50:00,
2013-03-27 03:55:00,32.6,27.4,30.26,NW,319,6.0,6.0,81,0.00,,---,0.00,0.00,VWS V14.00,2013-03-27 07:55:00,
2013-03-27 04:00:00,32.5,27.3,30.26,NW,313,6.0,6.0,81,0.00,,---,0.00,0.00,VWS V14.00,2013-03-27 08:00:00,
2013-03-27 04:05:00,32.4,27.5,30.26,NW,317,5.0,5.0,82,0.00,,---,0.00,0.00,VWS V14.00,2013-03-27 08:05:00,
2013-03-27 04:10:00,32.3,27.4,30.26,NW,312,4.0,6.0,82,0.00,,---,0.00,0.00,VWS V14.00,2013-03-27 08:10:00,
2013-03-27 04:15:00,32.2,27.3,30.26,WNW,303,7.0,8.0,82,0.00,,---,0.00,0.00,VWS V14.00,2013-03-27 08:15:00,
2013-03-27 04:20:00,32.1,27.2,30.26,WNW,301,5.0,7.0,82,0.00,,---,0.00,0.00,VWS V14.00,2013-03-27 08:20:00,
2013-03-27 04:25:00,32.0,27.4,30.26,NW,325,7.0,7.0,83,0.00,,---,0.00,0.00,VWS V14.00,2013-03-27 08:25:00,
2013-03-27 04:30:00,31.9,27.3,30.27,WNW,288,6.0,7.0,83,0.00,,---,0.00,0.00,VWS V14.00,2013-03-27 08:30:00,
2013-03-27 04:35:00,31.8,27.2,30.26,WNW,300,3.0,6.0,83,0.00,,---,0.00,0.00,VWS V14.00,2013-03-27 08:35:00,
2013-03-27 04:40:00,31.7,27.1,30.27,WNW,288,2.0,3.0,83,0.00,,---,0.00,0.00,VWS V14.00,2013-03-27 08:40:00,
2013-03-27 04:45:00,31.6,27.3,30.27,NW,306,4.0,5.0,84,0.00,,---,0.00,0.00,VWS V14.00,2013-03-27 08:45:00,
2013-03-27 04:50:00,31.4,27.1,30.26,WNW,297,5.0,8.0,84,0.00,,---,0.00,0.00,VWS V14.00,2013-03-27 08:50:00,
2013-03-27 04:55:00,31.3,27.0,30.26,WNW,298,4.0,6.0,84,0.00,,---,0.00,0.00,VWS V14.00,2013-03-27 08:55:00,
2013-03-27 05:00:00,31.3,27.0,30.27,WNW,295,5.0,6.0,84,0.00,,---,0.00,0.00,VWS V14.00,2013-03-27 09:00:00,
2013-03-27 05:05:00,31.1,26.8,30.27,NW,304,5.0,6.0,84,0.00,,---,0.00,0.00,VWS V14.00,2013-03-27 09:05:00,
2013-03-27 05:10:00,31.1,27.1,30.27,WNW,298,4.0,4.0,85,0.00,,---,0.00,0.00,VWS V14.00,2013-03-27 09:10:00,
2013-03-27 05:15:00,31.0,27.0,30.27,WNW,297,6.0,7.0,85,0.00,,---,0.00,0.00,VWS V14.00,2013-03-27 09:15:00,
2013-03-27 05:20:00,30.9,26.9,30.27,WNW,294,1.0,5.0,85,0.00,,---,0.00,0.00,VWS V14.00,2013-03-27 09:20:00,
2013-03-27 05:25:00,30.8,26.8,30.27,WNW,292,2.0,5.0,85,0.00,,---,0.00,0.00,VWS V14.00,2013-03-27 09:25:00,
2013-03-27 05:31:00,30.8,26.8,30.27,NW,313,3.0,5.0,85,0.00,,---,0.00,0.00,VWS V14.00,2013-03-27 09:31:00,
2013-03-27 05:36:00,30.7,26.7,30.27,WNW,301,4.0,4.0,85,0.00,,---,0.00,0.00,VWS V14.00,2013-03-27 09:36:00,
2013-03-27 05:41:00,30.5,26.5,30.27,WNW,298,2.0,5.0,85,0.00,,---,0.00,0.00,VWS V14.00,2013-03-27 09:41:00,
2013-03-27 05:46:00,30.4,26.7,30.28,West,273,7.0,7.0,86,0.00,,---,0.00,0.00,VWS V14.00,2013-03-27 09:46:00,
2013-03-27 05:51:00,30.4,26.7,30.27,WNW,295,5.0,6.0,86,0.00,,---,0.00,0.00,VWS V14.00,2013-03-27 09:51:00,
2013-03-27 05:56:00,30.3,26.6,30.28,West,281,2.0,5.0,86,0.00,,---,0.00,0.00,VWS V14.00,2013-03-27 09:56:00,
2013-03-27 06:01:00,30.3,26.6,30.28,WNW,291,4.0,6.0,86,0.00,,---,0.00,0.00,VWS V14.00,2013-03-27 10:01:00,
2013-03-27 06:06:00,30.3,26.6,30.28,WNW,290,4.0,6.0,86,0.00,,---,0.00,0.00,VWS V14.00,2013-03-27 10:06:00,
2013-03-27 06:11:00,30.3,26.6,30.28,West,279,7.0,9.0,86,0.00,,---,0.00,0.00,VWS V14.00,2013-03-27 10:11:00,
2013-03-27 06:16:00,30.3,26.6,30.28,WNW,289,4.0,7.0,86,0.00,,---,0.00,0.00,VWS V14.00,2013-03-27 10:16:00,
2013-03-27 06:21:00,30.3,26.6,30.28,WNW,295,5.0,6.0,86,0.00,,---,0.00,0.00,VWS V14.00,2013-03-27 10:21:00,
2013-03-27 06:26:00,30.2,26.8,30.28,WNW,298,4.0,5.0,87,0.00,,---,0.00,0.00,VWS V14.00,2013-03-27 10:26:00,
2013-03-27 06:31:00,30.1,26.7,30.28,WNW,297,4.0,5.0,87,0.00,,---,0.00,0.00,VWS V14.00,2013-03-27 10:31:00,
2013-03-27 06:36:00,30.0,26.6,30.28,WNW,292,4.0,7.0,87,0.00,,---,0.00,0.00,VWS V14.00,2013-03-27 10:36:00,
2013-03-27 06:41:00,30.0,26.6,30.29,WNW,292,4.0,7.0,87,0.00,,---,0.00,0.00,VWS V14.00,2013-03-27 10:41:00,
2013-03-27 06:46:00,29.9,26.5,30.29,WNW,303,3.0,6.0,87,0.00,,---,0.00,0.00,VWS V14.00,2013-03-27 10:46:00,
2013-03-27 06:51:00,29.9,26.5,30.29,WNW,300,7.0,7.0,87,0.00,,---,0.00,0.00,VWS V14.00,2013-03-27 10:51:00,
2013-03-27 06:56:00,29.8,26.4,30.29,NW,308,6.0,8.0,87,0.00,,---,0.00,0.00,VWS V14.00,2013-03-27 10:56:00,
2013-03-27 07:01:00,29.8,26.4,30.29,WNW,300,3.0,7.0,87,0.00,,---,0.00,0.00,VWS V14.00,2013-03-27 11:01:00,
2013-03-27 07:06:00,29.8,26.4,30.29,WNW,290,5.0,5.0,87,0.00,,---,0.00,0.00,VWS V14.00,2013-03-27 11:06:00,
2013-03-27 07:11:00,29.7,26.3,30.29,NW,305,6.0,8.0,87,0.00,,---,0.00,0.00,VWS V14.00,2013-03-27 11:11:00,
2013-03-27 07:16:00,29.7,26.3,30.29,WNW,295,4.0,9.0,87,0.00,,---,0.00,0.00,VWS V14.00,2013-03-27 11:16:00,
2013-03-27 07:21:00,29.7,26.3,30.29,WNW,295,5.0,7.0,87,0.00,,---,0.00,0.00,VWS V14.00,2013-03-27 11:21:00,
2013-03-27 07:26:00,29.7,26.3,30.29,WNW,291,8.0,8.0,87,0.00,,---,0.00,0.00,VWS V14.00,2013-03-27 11:26:00,
2013-03-27 07:31:00,29.7,26.3,30.29,WNW,300,5.0,9.0,87,0.00,,---,0.00,0.00,VWS V14.00,2013-03-27 11:31:00,
2013-03-27 07:36:00,29.7,26.3,30.29,WNW,300,5.0,7.0,87,0.00,,---,0.00,7.00,VWS V14.00,2013-03-27 11:36:00,
2013-03-27 07:42:00,29.7,26.3,30.29,NW,304,5.0,8.0,87,0.00,,---,0.00,11.00,VWS V14.00,2013-03-27 11:42:00,
2013-03-27 07:47:00,29.6,26.2,30.29,NW,325,4.0,6.0,87,0.00,,---,0.00,14.00,VWS V14.00,2013-03-27 11:47:00,
2013-03-27 07:52:00,29.6,26.2,30.29,WNW,294,5.0,6.0,87,0.00,,---,0.00,18.00,VWS V14.00,2013-03-27 11:52:00,
2013-03-27 07:57:00,29.5,26.4,30.29,WNW,300,5.0,6.0,88,0.00,,---,0.00,25.00,VWS V14.00,2013-03-27 11:57:00,
2013-03-27 08:02:00,29.6,26.5,30.30,WNW,297,5.0,7.0,88,0.00,,---,0.00,40.00,VWS V14.00,2013-03-27 12:02:00,
2013-03-27 08:07:00,29.7,26.6,30.30,NW,308,4.0,6.0,88,0.00,,---,0.00,56.00,VWS V14.00,2013-03-27 12:07:00,
2013-03-27 08:12:00,29.8,26.7,30.30,NW,313,5.0,6.0,88,0.00,,---,0.00,67.00,VWS V14.00,2013-03-27 12:12:00,
2013-03-27 08:17:00,29.9,26.8,30.30,WNW,291,4.0,7.0,88,0.00,,---,0.00,79.00,VWS V14.00,2013-03-27 12:17:00,
2013-03-27 08:22:00,30.0,26.9,30.31,WNW,284,7.0,8.0,88,0.00,,---,0.00,93.00,VWS V14.00,2013-03-27 12:22:00,
2013-03-27 08:27:00,30.2,27.1,30.31,WNW,300,7.0,10.0,88,0.00,,---,0.00,114.00,VWS V14.00,2013-03-27 12:27:00,
2013-03-27 08:32:00,30.4,27.0,30.31,WNW,302,6.0,10.0,87,0.00,,---,0.00,132.00,VWS V14.00,2013-03-27 12:32:00,
2013-03-27 08:37:00,30.6,27.2,30.31,WNW,300,7.0,10.0,87,0.00,,---,0.00,148.00,VWS V14.00,2013-03-27 12:37:00,
2013-03-27 08:42:00,30.8,27.4,30.31,WNW,284,6.0,10.0,87,0.00,,---,0.00,165.00,VWS V14.00,2013-03-27 12:42:00,
2013-03-27 08:47:00,31.0,27.6,30.31,NW,306,6.0,9.0,87,0.00,,---,0.00,183.00,VWS V14.00,2013-03-27 12:47:00,
2013-03-27 08:52:00,31.2,27.8,30.32,WNW,301,7.0,10.0,87,0.00,,---,0.00,200.00,VWS V14.00,2013-03-27 12:52:00,
2013-03-27 08:57:00,31.3,27.6,30.32,WNW,292,8.0,9.0,86,0.00,,---,0.00,214.00,VWS V14.00,2013-03-27 12:57:00,
2013-03-27 09:02:00,31.6,27.9,30.32,WNW,294,9.0,10.0,86,0.00,,---,0.00,232.00,VWS V14.00,2013-03-27 13:02:00,
2013-03-27 09:07:00,31.7,28.0,30.32,NW,311,6.0,10.0,86,0.00,,---,0.00,250.00,VWS V14.00,2013-03-27 13:07:00,
2013-03-27 09:12:00,32.0,28.3,30.32,NW,305,9.0,11.0,86,0.00,,---,0.00,269.00,VWS V14.00,2013-03-27 13:12:00,
2013-03-27 09:17:00,32.2,28.5,30.32,NW,311,7.0,10.0,86,0.00,,---,0.00,285.00,VWS V14.00,2013-03-27 13:17:00,
2013-03-27 09:22:00,32.5,28.5,30.32,WNW,297,9.0,9.0,85,0.00,,---,0.00,302.00,VWS V14.00,2013-03-27 13:22:00,
2013-03-27 09:30:00,33.1,29.1,30.33,NW,326,6.0,12.0,85,0.00,,---,0.00,334.00,VWS V14.00,2013-03-27 13:30:00,
2013-03-27 09:35:00,33.4,29.4,30.33,NNW,338,10.0,10.0,85,0.00,,---,0.00,352.00,VWS V14.00,2013-03-27 13:35:00,
2013-03-27 09:40:00,33.8,29.5,30.33,NW,317,8.0,10.0,84,0.00,,---,0.00,366.00,VWS V14.00,2013-03-27 13:40:00,
2013-03-27 09:45:00,34.1,29.5,30.33,WNW,292,7.0,13.0,83,0.00,,---,0.00,387.00,VWS V14.00,2013-03-27 13:45:00,
2013-03-27 09:50:00,34.3,29.7,30.33,WNW,286,6.0,11.0,83,0.00,,---,0.00,403.00,VWS V14.00,2013-03-27 13:50:00,
2013-03-27 09:55:00,34.6,30.0,30.33,NW,304,8.0,12.0,83,0.00,,---,0.00,418.00,VWS V14.00,2013-03-27 13:55:00,
2013-03-27 10:00:00,34.9,30.3,30.33,NNW,336,4.0,10.0,83,0.00,,---,0.00,436.00,VWS V14.00,2013-03-27 14:00:00,
2013-03-27 10:05:00,35.3,30.7,30.33,WNW,294,3.0,10.0,83,0.00,,---,0.00,454.00,VWS V14.00,2013-03-27 14:05:00,
2013-03-27 10:10:00,35.5,30.3,30.33,NW,317,7.0,10.0,81,0.00,,---,0.00,468.00,VWS V14.00,2013-03-27 14:10:00,
2013-03-27 10:15:00,35.6,30.4,30.33,WNW,290,8.0,11.0,81,0.00,,---,0.00,487.00,VWS V14.00,2013-03-27 14:15:00,
2013-03-27 10:20:00,35.7,30.5,30.33,WNW,295,5.0,11.0,81,0.00,,---,0.00,503.00,VWS V14.00,2013-03-27 14:20:00,
2013-03-27 10:25:00,36.1,30.8,30.33,WNW,303,7.0,7.0,81,0.00,,---,0.00,517.00,VWS V14.00,2013-03-27 14:25:00,
2013-03-27 10:30:00,36.3,30.7,30.33,NNW,329,10.0,12.0,80,0.00,,---,0.00,448.00,VWS V14.00,2013-03-27 14:30:00,
2013-03-27 10:35:00,36.4,30.5,30.33,NW,318,1.0,11.0,79,0.00,,---,0.00,271.00,VWS V14.00,2013-03-27 14:35:00,
2013-03-27 10:40:00,36.7,30.8,30.33,NW,324,1.0,12.0,79,0.00,,---,0.00,102.00,VWS V14.00,2013-03-27 14:40:00,
2013-03-27 10:45:00,37.2,31.3,30.33,NW,317,9.0,10.0,79,0.00,,---,0.00,169.00,VWS V14.00,2013-03-27 14:45:00,
2013-03-27 10:50:00,37.6,31.7,30.33,WNW,290,7.0,10.0,79,0.00,,---,0.00,216.00,VWS V14.00,2013-03-27 14:50:00,
2013-03-27 10:55:00,37.9,31.7,30.33,NNW,332,4.0,11.0,78,0.00,,---,0.00,148.00,VWS V14.00,2013-03-27 14:55:00,
2013-03-27 11:02:00,38.0,31.8,30.33,NW,319,2.0,9.0,78,0.00,,---,0.00,258.00,VWS V14.00,2013-03-27 15:02:00,
2013-03-27 11:07:00,38.4,31.8,30.33,WNW,300,7.0,11.0,77,0.00,,---,0.00,339.00,VWS V14.00,2013-03-27 15:07:00,
2013-03-27 11:12:00,38.7,32.1,30.33,NW,309,5.0,8.0,77,0.00,,---,0.00,508.00,VWS V14.00,2013-03-27 15:12:00,
2013-03-27 11:17:00,39.3,32.4,30.34,NNW,327,6.0,9.0,76,0.00,,---,0.00,552.00,VWS V14.00,2013-03-27 15:17:00,
2013-03-27 11:22:00,39.6,32.3,30.34,WNW,294,6.0,11.0,75,0.00,,---,0.00,710.00,VWS V14.00,2013-03-27 15:22:00,
2013-03-27 11:27:00,39.5,31.6,30.34,West,281,4.0,11.0,73,0.00,,---,0.00,487.00,VWS V14.00,2013-03-27 15:27:00,
2013-03-27 11:32:00,39.9,31.6,30.34,NW,306,13.0,13.0,72,0.00,,---,0.00,197.00,VWS V14.00,2013-03-27 15:32:00,
2013-03-27 11:38:00,40.0,31.0,30.34,NW,312,8.0,14.0,70,0.00,,---,0.00,206.00,VWS V14.00,2013-03-27 15:38:00,
2013-03-27 11:43:00,39.9,31.3,30.34,NNW,332,5.0,8.0,71,0.00,,---,0.00,274.00,VWS V14.00,2013-03-27 15:43:00,
2013-03-27 11:48:00,40.2,31.6,30.34,NW,306,8.0,10.0,71,0.00,,---,0.00,274.00,VWS V14.00,2013-03-27 15:48:00,
2013-03-27 11:53:00,40.1,31.5,30.34,NNW,342,4.0,7.0,71,0.00,,---,0.00,244.00,VWS V14.00,2013-03-27 15:53:00,
2013-03-27 11:58:00,40.4,31.4,30.34,NNW,333,7.0,9.0,70,0.00,,---,0.00,199.00,VWS V14.00,2013-03-27 15:58:00,
2013-03-27 12:03:00,40.2,30.9,30.34,NW,322,7.0,10.0,69,0.00,,---,0.00,216.00,VWS V14.00,2013-03-27 16:03:00,
2013-03-27 12:08:00,39.8,30.1,30.34,NW,318,5.0,10.0,68,0.00,,---,0.00,206.00,VWS V14.00,2013-03-27 16:08:00,
2013-03-27 12:13:00,39.9,30.2,30.34,NW,317,7.0,9.0,68,0.00,,---,0.00,221.00,VWS V14.00,2013-03-27 16:13:00,
2013-03-27 12:18:00,39.8,30.5,30.34,NW,311,7.0,10.0,69,0.00,,---,0.00,223.00,VWS V14.00,2013-03-27 16:18:00,
2013-03-27 12:23:00,40.4,31.8,30.34,NNW,345,5.0,11.0,71,0.00,,---,0.00,605.00,VWS V14.00,2013-03-27 16:23:00,
2013-03-27 12:28:00,40.9,31.2,30.33,WNW,302,0.0,8.0,68,0.00,,---,0.00,689.00,VWS V14.00,2013-03-27 16:28:00,
2013-03-27 12:33:00,41.4,30.9,30.33,NNW,339,5.0,6.0,66,0.00,,---,0.00,225.00,VWS V14.00,2013-03-27 16:33:00,
2013-03-27 12:38:00,41.2,30.3,30.33,NNW,329,5.0,6.0,65,0.00,,---,0.00,193.00,VWS V14.00,2013-03-27 16:38:00,
2013-03-27 12:43:00,41.1,30.2,30.33,NW,322,4.0,7.0,65,0.00,,---,0.00,181.00,VWS V14.00,2013-03-27 16:43:00,
2013-03-27 12:48:00,40.9,29.7,30.33,NNW,329,7.0,8.0,64,0.00,,---,0.00,220.00,VWS V14.00,2013-03-27 16:48:00,
2013-03-27 12:53:00,40.7,29.9,30.33,NW,317,2.0,6.0,65,0.00,,---,0.00,211.00,VWS V14.00,2013-03-27 16:53:00,
2013-03-27 12:58:00,40.9,30.4,30.32,West,272,5.0,7.0,66,0.00,,---,0.00,214.00,VWS V14.00,2013-03-27 16:58:00,
2013-03-27 13:03:00,41.0,30.9,30.32,NW,317,6.0,12.0,67,0.00,,---,0.00,288.00,VWS V14.00,2013-03-27 17:03:00,
2013-03-27 13:08:00,41.5,30.2,30.32,WNW,293,7.0,10.0,64,0.00,,---,0.00,309.00,VWS V14.00,2013-03-27 17:08:00,
2013-03-27 13:13:00,41.4,29.4,30.32,WNW,298,7.0,10.0,62,0.00,,---,0.00,308.00,VWS V14.00,2013-03-27 17:13:00,
2013-03-27 13:18:00,41.2,28.8,30.32,NW,314,8.0,12.0,61,0.00,,---,0.00,204.00,VWS V14.00,2013-03-27 17:18:00,
2013-03-27 13:23:00,41.3,29.7,30.32,NNW,329,0.0,9.0,63,0.00,,---,0.00,188.00,VWS V14.00,2013-03-27 17:23:00,
2013-03-27 13:28:00,41.4,30.1,30.32,NW,324,4.0,8.0,64,0.00,,---,0.00,281.00,VWS V14.00,2013-03-27 17:28:00,
2013-03-27 13:33:00,41.5,29.5,30.32,NW,309,7.0,12.0,62,0.00,,---,0.00,387.00,VWS V14.00,2013-03-27 17:33:00,
2013-03-27 13:38:00,41.6,29.6,30.32,NW,317,10.0,10.0,62,0.00,,---,0.00,339.00,VWS V14.00,2013-03-27 17:38:00,
2013-03-27 13:43:00,41.4,29.0,30.31,NW,310,7.0,12.0,61,0.00,,---,0.00,295.00,VWS V14.00,2013-03-27 17:43:00,
2013-03-27 13:48:00,41.3,28.9,30.31,WNW,300,8.0,13.0,61,0.00,,---,0.00,234.00,VWS V14.00,2013-03-27 17:48:00,
2013-03-27 13:53:00,41.2,28.8,30.31,NW,324,7.0,12.0,61,0.00,,---,0.00,178.00,VWS V14.00,2013-03-27 17:53:00,
2013-03-27 13:58:00,41.2,28.8,30.32,WNW,298,10.0,15.0,61,0.00,,---,0.00,190.00,VWS V14.00,2013-03-27 17:58:00,
2013-03-27 14:03:00,41.2,29.2,30.31,NNW,332,2.0,9.0,62,0.00,,---,0.00,295.00,VWS V14.00,2013-03-27 18:03:00,
2013-03-27 14:08:00,41.6,29.6,30.31,West,264,7.0,12.0,62,0.00,,---,0.00,364.00,VWS V14.00,2013-03-27 18:08:00,
2013-03-27 14:13:00,41.9,29.9,30.32,NW,305,10.0,11.0,62,0.00,,---,0.00,394.00,VWS V14.00,2013-03-27 18:13:00,
2013-03-27 14:18:00,41.8,29.0,30.32,West,264,10.0,16.0,60,0.00,,---,0.00,427.00,VWS V14.00,2013-03-27 18:18:00,
2013-03-27 14:23:00,42.0,28.3,30.31,West,261,10.0,14.0,58,0.00,,---,0.00,448.00,VWS V14.00,2013-03-27 18:23:00,
2013-03-27 14:28:00,42.2,28.9,30.31,NNW,331,7.0,15.0,59,0.00,,---,0.00,355.00,VWS V14.00,2013-03-27 18:28:00,
2013-03-27 14:33:00,42.5,29.6,30.32,WNW,297,10.0,11.0,60,0.00,,---,0.00,355.00,VWS V14.00,2013-03-27 18:33:00,
2013-03-27 14:38:00,42.7,30.6,30.31,NW,324,9.0,9.0,62,0.00,,---,0.00,608.00,VWS V14.00,2013-03-27 18:38:00,
2013-03-27 14:43:00,42.8,29.1,30.31,North,5,5.0,14.0,58,0.00,,---,0.00,432.00,VWS V14.00,2013-03-27 18:43:00,
2013-03-27 14:48:00,42.8,29.1,30.31,NW,319,11.0,14.0,58,0.00,,---,0.00,462.00,VWS V14.00,2013-03-27 18:48:00,
2013-03-27 14:53:00,42.8,29.1,30.31,WNW,299,6.0,16.0,58,0.00,,---,0.00,891.00,VWS V14.00,2013-03-27 18:53:00,
2013-03-27 14:58:00,43.3,30.4,30.31,WNW,300,9.0,18.0,60,0.00,,---,0.00,563.00,VWS V14.00,2013-03-27 18:58:00,
2013-03-27 15:03:00,43.2,28.1,30.31,West,274,7.0,14.0,55,0.00,,---,0.00,520.00,VWS V14.00,2013-03-27 19:03:00,
2013-03-27 15:08:00,43.0,28.4,30.31,NW,319,8.0,16.0,56,0.00,,---,0.00,489.00,VWS V14.00,2013-03-27 19:08:00,
2013-03-27 15:13:00,43.1,29.8,30.30,NW,317,6.0,13.0,59,0.00,,---,0.00,510.00,VWS V14.00,2013-03-27 19:13:00,
2013-03-27 15:18:00,43.3,28.7,30.30,West,279,7.0,12.0,56,0.00,,---,0.00,322.00,VWS V14.00,2013-03-27 19:18:00,
2013-03-27 15:23:00,43.0,28.4,30.30,NNW,344,8.0,14.0,56,0.00,,---,0.00,432.00,VWS V14.00,2013-03-27 19:23:00,
2013-03-27 15:28:00,43.2,29.0,30.30,NW,323,6.0,7.0,57,0.00,,---,0.00,376.00,VWS V14.00,2013-03-27 19:28:00,
2013-03-27 15:33:00,43.0,28.4,30.30,WNW,295,12.0,15.0,56,0.00,,---,0.00,320.00,VWS V14.00,2013-03-27 19:33:00,
2013-03-27 15:38:00,43.0,29.2,30.30,NW,321,6.0,20.0,58,0.00,,---,0.00,392.00,VWS V14.00,2013-03-27 19:38:00,
2013-03-27 15:43:00,42.9,29.2,30.30,NW,325,10.0,15.0,58,0.00,,---,0.00,295.00,VWS V14.00,2013-03-27 19:43:00,
2013-03-27 15:48:00,42.6,29.7,30.30,WNW,296,8.0,14.0,60,0.00,,---,0.00,858.00,VWS V14.00,2013-03-27 19:48:00,
2013-03-27 15:53:00,43.1,29.3,30.30,WNW,292,7.0,14.0,58,0.00,,---,0.00,487.00,VWS V14.00,2013-03-27 19:53:00,
2013-03-27 15:58:00,43.2,29.4,30.30,NW,319,10.0,13.0,58,0.00,,---,0.00,378.00,VWS V14.00,2013-03-27 19:58:00,
2013-03-27 16:03:00,42.8,28.2,30.30,WNW,290,8.0,18.0,56,0.00,,---,0.00,234.00,VWS V14.00,2013-03-27 20:03:00,
2013-03-27 16:08:00,42.5,27.9,30.30,WNW,288,8.0,11.0,56,0.00,,---,0.00,134.00,VWS V14.00,2013-03-27 20:08:00,
2013-03-27 16:13:00,42.3,28.2,30.30,NW,319,9.0,11.0,57,0.00,,---,0.00,109.00,VWS V14.00,2013-03-27 20:13:00,
2013-03-27 16:18:00,42.2,28.9,30.30,North,5,5.0,14.0,59,0.00,,---,0.00,135.00,VWS V14.00,2013-03-27 20:18:00,
2013-03-27 16:23:00,42.1,28.8,30.30,WNW,303,10.0,13.0,59,0.00,,---,0.00,211.00,VWS V14.00,2013-03-27 20:23:00,
2013-03-27 16:28:00,42.2,28.9,30.30,WNW,286,6.0,14.0,59,0.00,,---,0.00,251.00,VWS V14.00,2013-03-27 20:28:00,
2013-03-27 16:33:00,42.4,29.1,30.30,NW,306,8.0,15.0,59,0.00,,---,0.00,281.00,VWS V14.00,2013-03-27 20:33:00,
2013-03-27 16:38:00,42.6,29.3,30.30,NW,311,4.0,13.0,59,0.00,,---,0.00,258.00,VWS V14.00,2013-03-27 20:38:00,
2013-03-27 16:43:00,42.6,29.3,30.30,NW,318,10.0,12.0,59,0.00,,---,0.00,320.00,VWS V14.00,2013-03-27 20:43:00,
2013-03-27 16:48:00,42.8,29.5,30.30,NW,317,7.0,18.0,59,0.00,,---,0.00,429.00,VWS V14.00,2013-03-27 20:48:00,
2013-03-27 16:53:00,43.3,30.0,30.30,NW,313,9.0,18.0,59,0.00,,---,0.00,429.00,VWS V14.00,2013-03-27 20:53:00,
2013-03-27 16:58:00,43.9,29.2,30.29,NNW,333,9.0,15.0,56,0.00,,---,0.00,308.00,VWS V14.00,2013-03-27 20:58:00,
2013-03-27 17:03:00,43.8,29.1,30.29,NNW,348,9.0,16.0,56,0.00,,---,0.00,682.00,VWS V14.00,2013-03-27 21:03:00,
2013-03-27 17:08:00,43.6,29.8,30.30,NW,307,12.0,14.0,58,0.00,,---,0.00,297.00,VWS V14.00,2013-03-27 21:08:00,
2013-03-27 17:13:00,43.2,29.4,30.30,NW,323,5.0,12.0,58,0.00,,---,0.00,204.00,VWS V14.00,2013-03-27 21:13:00,
2013-03-27 17:18:00,43.1,29.3,30.30,West,277,8.0,12.0,58,0.00,,---,0.00,156.00,VWS V14.00,2013-03-27 21:18:00,
2013-03-27 17:23:00,42.8,29.1,30.30,WNW,282,6.0,14.0,58,0.00,,---,0.00,127.00,VWS V14.00,2013-03-27 21:23:00,
2013-03-27 17:28:00,42.4,28.3,30.30,WNW,298,9.0,13.0,57,0.00,,---,0.00,107.00,VWS V14.00,2013-03-27 21:28:00,
2013-03-27 17:34:00,42.2,28.5,30.29,NW,319,9.0,13.0,58,0.00,,---,0.00,72.00,VWS V14.00,2013-03-27 21:34:00,
2013-03-27 17:39:00,42.0,28.7,30.30,WNW,295,8.0,12.0,59,0.00,,---,0.00,65.00,VWS V14.00,2013-03-27 21:39:00,
2013-03-27 17:44:00,41.9,29.0,30.29,NW,312,9.0,14.0,60,0.00,,---,0.00,63.00,VWS V14.00,2013-03-27 21:44:00,
2013-03-27 17:49:00,41.8,29.4,30.29,NW,324,5.0,11.0,61,0.00,,---,0.00,51.00,VWS V14.00,2013-03-27 21:49:00,
2013-03-27 17:54:00,41.7,29.3,30.29,NW,315,11.0,13.0,61,0.00,,---,0.00,46.00,VWS V14.00,2013-03-27 21:54:00,
2013-03-27 17:59:00,41.7,28.9,30.29,WNW,302,10.0,11.0,60,0.00,,---,0.00,49.00,VWS V14.00,2013-03-27 21:59:00,
2013-03-27 18:04:00,41.7,29.3,30.30,NW,320,7.0,13.0,61,0.00,,---,0.00,77.00,VWS V14.00,2013-03-27 22:04:00,
2013-03-27 18:09:00,41.7,28.9,30.30,NW,314,5.0,13.0,60,0.00,,---,0.00,93.00,VWS V14.00,2013-03-27 22:09:00,
2013-03-27 18:14:00,41.8,28.5,30.30,WNW,302,9.0,14.0,59,0.00,,---,0.00,81.00,VWS V14.00,2013-03-27 22:14:00,
2013-03-27 18:19:00,42.0,29.5,30.30,NW,305,7.0,12.0,61,0.00,,---,0.00,141.00,VWS V14.00,2013-03-27 22:19:00,
2013-03-27 18:24:00,42.4,29.5,30.30,NW,320,9.0,18.0,60,0.00,,---,0.00,320.00,VWS V14.00,2013-03-27 22:24:00,
2013-03-27 18:29:00,42.9,30.0,30.30,NW,319,12.0,14.0,60,0.00,,---,0.00,315.00,VWS V14.00,2013-03-27 22:29:00,
2013-03-27 18:34:00,42.6,29.3,30.30,NW,311,8.0,10.0,59,0.00,,---,0.00,91.00,VWS V14.00,2013-03-27 22:34:00,
2013-03-27 18:39:00,42.1,29.2,30.30,WNW,301,8.0,10.0,60,0.00,,---,0.00,74.00,VWS V14.00,2013-03-27 22:39:00,
2013-03-27 18:44:00,41.8,29.0,30.30,NW,304,6.0,9.0,60,0.00,,---,0.00,149.00,VWS V14.00,2013-03-27 22:44:00,
2013-03-27 18:49:00,41.7,29.3,30.30,NW,319,6.0,11.0,61,0.00,,---,0.00,72.00,VWS V14.00,2013-03-27 22:49:00,
2013-03-27 18:54:00,41.5,29.1,30.30,NW,310,8.0,13.0,61,0.00,,---,0.00,77.00,VWS V14.00,2013-03-27 22:54:00,
2013-03-27 18:59:00,41.4,29.0,30.30,NW,320,12.0,14.0,61,0.00,,---,0.00,88.00,VWS V14.00,2013-03-27 22:59:00,
2013-03-27 19:04:00,41.2,28.8,30.30,NNW,333,7.0,13.0,61,0.00,,---,0.00,83.00,VWS V14.00,2013-03-27 23:04:00,
2013-03-27 19:09:00,41.1,29.1,30.30,NW,311,7.0,9.0,62,0.00,,---,0.00,60.00,VWS V14.00,2013-03-27 23:09:00,
2013-03-27 19:14:00,41.1,29.1,30.30,NW,315,6.0,11.0,62,0.00,,---,0.00,56.00,VWS V14.00,2013-03-27 23:14:00,
2013-03-27 19:19:00,41.0,29.0,30.30,NW,323,10.0,14.0,62,0.00,,---,0.00,37.00,VWS V14.00,2013-03-27 23:19:00,
2013-03-27 19:24:00,40.9,28.9,30.30,NW,320,6.0,9.0,62,0.00,,---,0.00,25.00,VWS V14.00,2013-03-27 23:24:00,
2013-03-27 19:29:00,40.7,28.7,30.30,NW,317,7.0,9.0,62,0.00,,---,0.00,19.00,VWS V14.00,2013-03-27 23:29:00,
2013-03-27 19:34:00,40.7,28.7,30.30,NW,325,8.0,13.0,62,0.00,,---,0.00,14.00,VWS V14.00,2013-03-27 23:34:00,
2013-03-27 19:39:00,40.7,28.7,30.31,NW,311,6.0,11.0,62,0.00,,---,0.00,11.00,VWS V14.00,2013-03-27 23:39:00,
2013-03-27 19:44:00,40.7,29.1,30.31,NW,325,4.0,12.0,63,0.00,,---,0.00,7.00,VWS V14.00,2013-03-27 23:44:00,
2013-03-27 19:49:00,40.6,29.4,30.31,NW,318,5.0,7.0,64,0.00,,---,0.00,5.00,VWS V14.00,2013-03-27 23:49:00,
2013-03-27 19:54:00,40.5,29.3,30.31,NW,307,6.0,10.0,64,0.00,,---,0.00,0.00,VWS V14.00,2013-03-27 23:54:00,
2013-03-27 19:59:00,40.5,29.3,30.31,NNW,332,5.0,10.0,64,0.00,,---,0.00,0.00,VWS V14.00,2013-03-27 23:59:00,
2013-03-27 20:04:00,40.4,29.2,30.31,NW,324,6.0,9.0,64,0.00,,---,0.00,0.00,VWS V14.00,2013-03-28 00:04:00,
2013-03-27 20:09:00,40.3,29.5,30.31,NW,315,5.0,7.0,65,0.00,,---,0.00,0.00,VWS V14.00,2013-03-28 00:09:00,
2013-03-27 20:14:00,40.2,29.4,30.31,NW,320,2.0,5.0,65,0.00,,---,0.00,0.00,VWS V14.00,2013-03-28 00:14:00,
2013-03-27 20:19:00,40.1,29.3,30.30,NW,322,3.0,7.0,65,0.00,,---,0.00,0.00,VWS V14.00,2013-03-28 00:19:00,
2013-03-27 20:24:00,40.0,29.2,30.31,NW,319,5.0,6.0,65,0.00,,---,0.00,0.00,VWS V14.00,2013-03-28 00:24:00,
2013-03-27 20:29:00,40.0,29.2,30.31,NW,306,5.0,6.0,65,0.00,,---,0.00,0.00,VWS V14.00,2013-03-28 00:29:00,
2013-03-27 20:34:00,39.9,29.1,30.31,NNW,341,6.0,7.0,65,0.00,,---,0.00,0.00,VWS V14.00,2013-03-28 00:34:00,
2013-03-27 20:39:00,39.9,29.1,30.30,NW,305,0.0,6.0,65,0.00,,---,0.00,0.00,VWS V14.00,2013-03-28 00:39:00,
2013-03-27 20:44:00,39.8,29.4,30.31,NW,305,0.0,4.0,66,0.00,,---,0.00,0.00,VWS V14.00,2013-03-28 00:44:00,
2013-03-27 20:49:00,39.7,28.9,30.30,NW,305,0.0,4.0,65,0.00,,---,0.00,0.00,VWS V14.00,2013-03-28 00:49:00,
2013-03-27 20:54:00,39.7,29.3,30.30,NW,305,0.0,0.0,66,0.00,,---,0.00,0.00,VWS V14.00,2013-03-28 00:54:00,
2013-03-27 20:59:00,39.6,29.2,30.31,NW,305,4.0,4.0,66,0.00,,---,0.00,0.00,VWS V14.00,2013-03-28 00:59:00,
2013-03-27 21:04:00,39.5,29.1,30.31,NW,306,1.0,4.0,66,0.00,,---,0.00,0.00,VWS V14.00,2013-03-28 01:04:00,
2013-03-27 21:09:00,39.5,29.1,30.31,NW,306,1.0,5.0,66,0.00,,---,0.00,0.00,VWS V14.00,2013-03-28 01:09:00,
2013-03-27 21:14:00,39.4,29.0,30.31,NW,306,3.0,3.0,66,0.00,,---,0.00,0.00,VWS V14.00,2013-03-28 01:14:00,
2013-03-27 21:19:00,39.3,28.9,30.31,NW,306,0.0,4.0,66,0.00,,---,0.00,0.00,VWS V14.00,2013-03-28 01:19:00,
2013-03-27 21:24:00,39.3,29.3,30.31,NW,306,0.0,1.0,67,0.00,,---,0.00,0.00,VWS V14.00,2013-03-28 01:24:00,
2013-03-27 21:29:00,39.2,29.2,30.31,NW,306,0.0,0.0,67,0.00,,---,0.00,0.00,VWS V14.00,2013-03-28 01:29:00,
2013-03-27 21:34:00,39.1,28.7,30.31,NW,306,0.0,0.0,66,0.00,,---,0.00,0.00,VWS V14.00,2013-03-28 01:34:00,
2013-03-27 21:39:00,39.0,28.6,30.31,NW,306,0.0,2.0,66,0.00,,---,0.00,0.00,VWS V14.00,2013-03-28 01:39:00,
2013-03-27 21:44:00,38.9,28.9,30.32,NW,306,1.0,2.0,67,0.00,,---,0.00,0.00,VWS V14.00,2013-03-28 01:44:00,
2013-03-27 21:49:00,38.9,28.5,30.32,NW,306,1.0,2.0,66,0.00,,---,0.00,0.00,VWS V14.00,2013-03-28 01:49:00,
2013-03-27 21:54:00,38.9,28.5,30.32,NNW,345,2.0,5.0,66,0.00,,---,0.00,0.00,VWS V14.00,2013-03-28 01:54:00,
2013-03-27 21:59:00,38.9,28.5,30.32,NNW,345,1.0,2.0,66,0.00,,---,0.00,0.00,VWS V14.00,2013-03-28 01:59:00,
2013-03-27 22:04:00,38.9,28.5,30.32,NNW,345,0.0,1.0,66,0.00,,---,0.00,0.00,VWS V14.00,2013-03-28 02:04:00,
2013-03-27 22:09:00,38.8,28.4,30.32,NNW,345,0.0,3.0,66,0.00,,---,0.00,0.00,VWS V14.00,2013-03-28 02:09:00,
2013-03-27 22:14:00,38.8,28.4,30.32,NNW,345,0.0,0.0,66,0.00,,---,0.00,0.00,VWS V14.00,2013-03-28 02:14:00,
2013-03-27 22:19:00,38.7,28.7,30.33,NNW,345,0.0,1.0,67,0.00,,---,0.00,0.00,VWS V14.00,2013-03-28 02:19:00,
2013-03-27 22:24:00,38.6,28.2,30.33,NNW,346,1.0,3.0,66,0.00,,---,0.00,0.00,VWS V14.00,2013-03-28 02:24:00,
2013-03-27 22:29:00,38.5,28.5,30.33,NNW,346,0.0,2.0,67,0.00,,---,0.00,0.00,VWS V14.00,2013-03-28 02:29:00,
2013-03-27 22:35:00,38.4,28.4,30.33,NNW,346,0.0,4.0,67,0.00,,---,0.00,0.00,VWS V14.00,2013-03-28 02:35:00,
2013-03-27 22:40:00,38.4,28.4,30.33,NNW,346,0.0,2.0,67,0.00,,---,0.00,0.00,VWS V14.00,2013-03-28 02:40:00,
2013-03-27 22:45:00,38.3,28.3,30.33,NNW,346,0.0,0.0,67,0.00,,---,0.00,0.00,VWS V14.00,2013-03-28 02:45:00,
2013-03-27 22:50:00,38.2,28.2,30.33,NNW,346,0.0,0.0,67,0.00,,---,0.00,0.00,VWS V14.00,2013-03-28 02:50:00,
2013-03-27 22:55:00,38.2,28.2,30.33,NNW,346,0.0,2.0,67,0.00,,---,0.00,0.00,VWS V14.00,2013-03-28 02:55:00,
2013-03-27 23:00:00,38.1,27.8,30.33,NNW,346,0.0,2.0,66,0.00,,---,0.00,0.00,VWS V14.00,2013-03-28 03:00:00,
2013-03-27 23:05:00,38.1,27.8,30.33,NNW,346,0.0,2.0,66,0.00,,---,0.00,0.00,VWS V14.00,2013-03-28 03:05:00,
2013-03-27 23:10:00,38.0,28.0,30.33,NNW,343,0.0,3.0,67,0.00,,---,0.00,0.00,VWS V14.00,2013-03-28 03:10:00,
2013-03-27 23:15:00,38.0,28.0,30.33,NNW,343,0.0,0.0,67,0.00,,---,0.00,0.00,VWS V14.00,2013-03-28 03:15:00,
2013-03-27 23:20:00,37.9,27.9,30.33,NNW,343,0.0,1.0,67,0.00,,---,0.00,0.00,VWS V14.00,2013-03-28 03:20:00,
2013-03-27 23:25:00,37.9,27.6,30.33,NNW,343,0.0,3.0,66,0.00,,---,0.00,0.00,VWS V14.00,2013-03-28 03:25:00,
2013-03-27 23:30:00,37.9,27.6,30.33,NNW,343,0.0,3.0,66,0.00,,---,0.00,0.00,VWS V14.00,2013-03-28 03:30:00,
2013-03-27 23:35:00,38.0,27.7,30.33,North,349,2.0,2.0,66,0.00,,---,0.00,0.00,VWS V14.00,2013-03-28 03:35:00,
2013-03-27 23:40:00,37.9,27.9,30.33,NNW,348,0.0,4.0,67,0.00,,---,0.00,0.00,VWS V14.00,2013-03-28 03:40:00,
2013-03-27 23:45:00,37.8,27.8,30.33,North,349,1.0,3.0,67,0.00,,---,0.00,0.00,VWS V14.00,2013-03-28 03:45:00,
2013-03-27 23:50:00,37.7,27.8,30.33,NNW,347,2.0,4.0,67,0.00,,---,0.00,0.00,VWS V14.00,2013-03-28 03:50:00,
2013-03-27 23:55:00,37.6,27.6,30.33,NNW,336,0.0,4.0,67,0.00,,---,0.00,0.00,VWS V14.00,2013-03-28 03:55:00,